This demonstration page uses our WeatherBlox Daily Observations layout. Learn more.

39.29038, -76.61219

Hourly Observations for July 7, 2015

Temp ( °F °C ) Dew Point ( °F °C ) Humidity (%) Winds ( mph kmh ) Pressure ( in mb ) Visibility ( mi km ) Precip ( " mm )
12:54 am 00:54 Mostly Cloudy 77 25 72 22.2 85 85 undefined N/A 30.09 1019 N/A 0 0
1:54 am 01:54 undefined 74 23.3 71 21.7 91 91 undefined N/A 30.02 1017 N/A 0 0
2:54 am 02:54 Cloudy 73 22.8 71 21.7 94 94 undefined N/A 30.02 1017 N/A 0 0
3:54 am 03:54 undefined 73 22.8 71 21.7 94 94 undefined N/A 30.03 1017 N/A 0 0
4:54 am 04:54 undefined 73 22.8 71 21.7 94 94 undefined N/A 30.02 1017 N/A 0 0
5:54 am 05:54 undefined 73 22.8 71 21.7 94 94 undefined N/A 30.03 1017 N/A 0 0
6:54 am 06:54 undefined 75 23.9 71 21.7 88 88 undefined N/A 30.04 1017 N/A 0 0
7:54 am 07:54 undefined 77 25 71 21.7 82 82 undefined N/A 30.06 1018 N/A 0 0
8:54 am 08:54 Partly Cloudy 78 25.6 71 21.7 79 79 undefined N/A 30.07 1018 N/A 0 0
9:54 am 09:54 undefined 81 27.2 72 22.2 74 74 undefined N/A 30.07 1018 N/A 0 0
10:54 am 10:54 undefined 83 28.3 70 21.1 65 65 undefined N/A 30.06 1018 N/A 0 0
11:54 am 11:54 undefined 85 29.4 68 20 57 57 undefined N/A 30.05 1018 N/A 0 0
12:54 pm 12:54 undefined 87 30.6 67 19.4 51 51 undefined N/A 30.04 1017 N/A 0 0
1:54 pm 13:54 undefined 88 31.1 67 19.4 50 50 undefined N/A 30.02 1017 N/A 0 0
2:54 pm 14:54 undefined 89 31.7 66 18.9 47 47 undefined N/A 30.01 1016 N/A 0 0
3:54 pm 15:54 undefined 90 32.2 66 18.9 45 45 undefined N/A 29.98 1015 N/A 0 0
4:54 pm 16:54 Mostly Sunny 90 32.2 66 18.9 45 45 undefined N/A 29.97 1015 N/A 0 0
5:54 pm 17:54 undefined 90 32.2 63 17.2 41 41 undefined N/A 29.95 1014 N/A 0 0
6:54 pm 18:54 Mostly Cloudy 88 31.1 65 18.3 46 46 undefined N/A 29.95 1014 N/A 0 0
7:54 pm 19:54 undefined 87 30.6 66 18.9 50 50 undefined N/A 29.96 1015 N/A 0 0
8:54 pm 20:54 Partly Cloudy 85 29.4 67 19.4 55 55 undefined N/A 29.97 1015 N/A 0 0
9:54 pm 21:54 undefined 83 28.3 68 20 61 61 undefined N/A 29.99 1016 N/A 0 0
10:54 pm 22:54 Cloudy 82 27.8 69 20.6 65 65 undefined N/A 29.99 1016 N/A 0 0
11:54 pm 23:54 undefined 81 27.2 69 20.6 67 67 undefined N/A 29.98 1015 N/A 0 0

Powered by AerisWeather